Starlink 35009

operational
NORAD ID: 65449 Int'l Des: 2025-194 Owner: SPXS Country: US Constellation: starlink
LEOCIRCULARRETROGRADE

Über Starlink 35009

Beschreibung wird geladen...

Live-Position

3D-Globus wird geladen...

Nächste Überflüge

Höhenverlauf

Altitude vs Time

uPlot chart will show altitude changes over time

Zweizeiliger Elementsatz

1 65449U 25194R 25340.92093314 .00009227 00000-0 64265-3 0 9990
2 65449 97.6030 193.0283 0002144 81.0189 279.1281 15.05660605 15694
Epoch: 6. Dez. 2025 • Age: 17 hours

Aktueller Status

Höhe 557.3 km
Geschwindigkeit 7.58 km/s
Subsatellitenpunkt -18.00°S, 70.69°E
Startdatum 3. Sept. 2025
Alter 0.2 years
Typ internet

Technische Details

Klassifizierung Payload
Masse 575.00 kg
Trockenmasse 530.00 kg
Gesamtmasse 575.00 kg
Länge 0.30 m
Durchmesser 4.10 m
Spannweite 29.00 m
Form Box + pan
Hersteller SPXS
Bus-Typ Starlink V2MO
Phasenstatus In Orbit
Besitzer/Staat SPXS/US

Große Konstellationen

Loading constellations...